Regional Weather Roundup
Issued by NWS State College, PA

Home | Current Version | Previous Version | Text Only | Print | Product List | Glossary Off
Versions: 1 2 3 4 5 6 7 8 9 10 11 12 13 14 15 16 17 18 19 20 21 22 23 24 25 26 27 28 29 30 31 32 33 34 35 36 37 38 39 40 41 42 43 44 45 46 47 48 49 50

000
ASUS41 KCTP 291110
RWRCTP

REGIONAL WEATHER ROUNDUP
NATIONAL WEATHER SERVICE STATE COLLEGE PA
700 AM EDT FRI MAY 29 2015

Note: "fair" indicates few or no clouds below 12,000 feet with no
significant weather and/or obstructions to visibility.

* = STATION THAT DOES NOT REPORT PRECIPITATION /E.G. RAIN...SNOW...ETC/
    THUNDER OR FOG.

PAZ002>004-007>009-013>016-020>023-029>032-291200-
WESTERN PENNSYLVANIA

CITY           SKY/WX    TMP DP  RH WIND       PRES   REMARKS
ERIE           SUNNY     66  51  58 SE13      30.21S
MEADVILLE      MOSUNNY   63  51  65 VRB3      30.24S
FRANKLIN*      MOSUNNY   57  48  72 E7        30.27S
NEW CASTLE     FAIR      57  57 100 CALM      30.24S
BEAVER COUNTY  SUNNY     63  54  72 E3        30.24
BUTLER*        MOSUNNY   57  54  88 E5        30.26S
PITTSBURGH INT PTSUNNY   61  54  77 E5        30.22S
PITTSBURGH     SUNNY     63  51  65 CALM      30.23R
INDIANA*       SUNNY     63  54  72 E6        30.30S
LATROBE        MOSUNNY   70  55  60 CALM      30.26S
WASHINGTON CO* SUNNY     55  55 100 CALM      30.25R
$$

PAZ004>006-010>012-017>019-024>028-033>037-041-042-045-046-049>053-291200-
CENTRAL PENNSYLVANIA

CITY           SKY/WX    TMP DP  RH WIND       PRES   REMARKS
BRADFORD       SUNNY     52  50  93 SE5       30.31S
DUBOIS         SUNNY     60  52  74 E7        30.29R
CLEARFIELD     SUNNY     54  51  90 N5        30.32R
JOHNSTOWN      MOSUNNY   63  49  60 SE3       30.30R
ALTOONA        PTSUNNY   59  53  80 CALM      30.31R
STATE COLLEGE  MOSUNNY   55  54  94 CALM      30.32R
WILLIAMSPORT   SUNNY     57  53  86 CALM      30.31R
SELINSGROVE    SUNNY     57  55  93 CALM      30.32R
FT INDIANTOWN  SUNNY     59  56  89 CALM      30.30R
CAPITAL CITY   SUNNY     65  55  70 CALM      30.30R
HARRISBURG     SUNNY     65  55  70 CALM      30.29R
YORK           SUNNY     61  58  90 CALM      30.29R
$$

PAZ038>040-043-044-047-048-054-055-060>062-067>071-291200-
EASTERN PENNSYLVANIA

CITY           SKY/WX    TMP DP  RH WIND       PRES   REMARKS
SCRANTON       SUNNY     57  50  77 E5        30.32R
MOUNT POCONO   SUNNY     59  32  36 NE5       30.33R
ALLENTOWN      SUNNY     60  54  80 N3        30.30R
QUAKERTOWN*    SUNNY     59  54  82 CALM      30.31R
READING        SUNNY     62  55  77 N5        30.29R
LANCASTER      SUNNY     64  55  72 CALM      30.29R
COATESVILLE    SUNNY     64  55  72 E5        30.30R
POTTSTOWN      SUNNY     63  56  78 CALM      30.31R
BLUE BELL      SUNNY     61  57  88 CALM      30.29R
DOYLESTOWN     SUNNY     60  54  80 CALM      30.29R
WILLOW GROVE   NOT AVBL
NORTH PHILA    SUNNY     67  54  63 NE7       30.30R
PHILADELPHIA   MOSUNNY   69  55  60 NE10      30.28R
$$


USA.gov is the U.S. government's official web portal to all federal, state and local government web resources and services.